Year,Month,Day,Hour,Minute,Value (Times are PST for temperature in C)
2013,05,07,00,00,21.60
2013,05,07,00,01,21.60
2013,05,07,00,02,21.60
2013,05,07,00,03,21.60
2013,05,07,00,04,21.50
2013,05,07,00,05,21.40
2013,05,07,00,06,21.40
2013,05,07,00,07,21.30
2013,05,07,00,08,21.20
2013,05,07,00,09,21.20
2013,05,07,00,10,21.10
2013,05,07,00,11,21.10
2013,05,07,00,12,21.00
2013,05,07,00,13,21.00
2013,05,07,00,14,21.00
2013,05,07,00,15,20.90
2013,05,07,00,16,20.90
2013,05,07,00,17,20.90
2013,05,07,00,18,20.90
2013,05,07,00,19,20.80
2013,05,07,00,20,20.80
2013,05,07,00,21,20.80
2013,05,07,00,22,20.70
2013,05,07,00,23,20.70
2013,05,07,00,24,20.70
2013,05,07,00,25,20.70
2013,05,07,00,26,20.60
2013,05,07,00,27,20.60
2013,05,07,00,28,20.60
2013,05,07,00,29,20.50
2013,05,07,00,30,20.50
2013,05,07,00,31,20.40
2013,05,07,00,32,20.40
2013,05,07,00,33,20.40
2013,05,07,00,34,20.30
2013,05,07,00,35,20.30
2013,05,07,00,36,20.20
2013,05,07,00,37,20.20
2013,05,07,00,38,20.20
2013,05,07,00,39,20.10
2013,05,07,00,40,20.10
2013,05,07,00,41,20.10
2013,05,07,00,42,20.00
2013,05,07,00,43,20.00
2013,05,07,00,44,19.90
2013,05,07,00,45,19.90
2013,05,07,00,46,19.90
2013,05,07,00,47,19.80
2013,05,07,00,48,19.80
2013,05,07,00,49,19.80
2013,05,07,00,50,19.80
2013,05,07,00,51,19.80
2013,05,07,00,52,19.80
2013,05,07,00,53,19.70
2013,05,07,00,54,19.70
2013,05,07,00,55,19.70
2013,05,07,00,56,19.60
2013,05,07,00,57,19.60
2013,05,07,00,58,19.60
2013,05,07,00,59,19.50
2013,05,07,01,00,19.50
2013,05,07,01,01,19.40
2013,05,07,01,02,19.30
2013,05,07,01,03,19.30
2013,05,07,01,04,19.20
2013,05,07,01,05,19.10
2013,05,07,01,06,19.10
2013,05,07,01,07,19.00
2013,05,07,01,08,18.90
2013,05,07,01,09,18.90
2013,05,07,01,10,18.90
2013,05,07,01,11,19.00
2013,05,07,01,12,19.20
2013,05,07,01,13,19.30
2013,05,07,01,14,19.40
2013,05,07,01,15,19.50
2013,05,07,01,16,19.60
2013,05,07,01,17,19.60
2013,05,07,01,18,19.70
2013,05,07,01,19,19.70
2013,05,07,01,20,19.80
2013,05,07,01,21,19.90
2013,05,07,01,22,20.00
2013,05,07,01,23,20.10
2013,05,07,01,24,20.10
2013,05,07,01,25,20.20
2013,05,07,01,26,20.20
2013,05,07,01,27,20.20
2013,05,07,01,28,20.30
2013,05,07,01,29,20.30
2013,05,07,01,30,20.40
2013,05,07,01,31,20.40
2013,05,07,01,32,20.40
2013,05,07,01,33,20.40
2013,05,07,01,34,20.40
2013,05,07,01,35,20.40
2013,05,07,01,36,20.40
2013,05,07,01,37,20.40
2013,05,07,01,38,20.40
2013,05,07,01,39,20.30
2013,05,07,01,40,20.30
2013,05,07,01,41,20.30
2013,05,07,01,42,20.20
2013,05,07,01,43,20.10
2013,05,07,01,44,20.10
2013,05,07,01,45,20.10
2013,05,07,01,46,20.00
2013,05,07,01,47,19.90
2013,05,07,01,48,19.90
2013,05,07,01,49,19.90
2013,05,07,01,50,19.90
2013,05,07,01,51,19.80
2013,05,07,01,52,19.80
2013,05,07,01,53,19.80
2013,05,07,01,54,19.70
2013,05,07,01,55,19.70
2013,05,07,01,56,19.70
2013,05,07,01,57,19.60
2013,05,07,01,58,19.60
2013,05,07,01,59,19.50
2013,05,07,02,00,19.40
2013,05,07,02,01,19.40
2013,05,07,02,02,19.30
2013,05,07,02,03,19.30
2013,05,07,02,04,19.30
2013,05,07,02,05,19.30
2013,05,07,02,06,19.20
2013,05,07,02,07,19.20
2013,05,07,02,08,19.20
2013,05,07,02,09,19.20
2013,05,07,02,10,19.20
2013,05,07,02,11,19.20
2013,05,07,02,12,19.20
2013,05,07,02,13,19.20
2013,05,07,02,14,19.20
2013,05,07,02,15,19.20
2013,05,07,02,16,19.30
2013,05,07,02,17,19.30
2013,05,07,02,18,19.40
2013,05,07,02,19,19.40
2013,05,07,02,20,19.50
2013,05,07,02,21,19.50
2013,05,07,02,22,19.60
2013,05,07,02,23,19.60
2013,05,07,02,24,19.70
2013,05,07,02,25,19.70
2013,05,07,02,26,19.70
2013,05,07,02,27,19.70
2013,05,07,02,28,19.70
2013,05,07,02,29,19.70
2013,05,07,02,30,19.70
2013,05,07,02,31,19.70
2013,05,07,02,32,19.60
2013,05,07,02,33,19.60
2013,05,07,02,34,19.60
2013,05,07,02,35,19.60
2013,05,07,02,36,19.60
2013,05,07,02,37,19.60
2013,05,07,02,38,19.60
2013,05,07,02,39,19.60
2013,05,07,02,40,19.60
2013,05,07,02,41,19.50
2013,05,07,02,42,19.50
2013,05,07,02,43,19.40
2013,05,07,02,44,19.40
2013,05,07,02,45,19.40
2013,05,07,02,46,19.30
2013,05,07,02,47,19.30
2013,05,07,02,48,19.30
2013,05,07,02,49,19.30
2013,05,07,02,50,19.20
2013,05,07,02,51,19.20
2013,05,07,02,52,19.20
2013,05,07,02,53,19.10
2013,05,07,02,54,19.00
2013,05,07,02,55,19.00
2013,05,07,02,56,18.90
2013,05,07,02,57,18.80
2013,05,07,02,58,18.80
2013,05,07,02,59,18.70
2013,05,07,03,00,18.70
2013,05,07,03,01,18.60
2013,05,07,03,02,18.50
2013,05,07,03,03,18.40
2013,05,07,03,04,18.30
2013,05,07,03,05,18.20
2013,05,07,03,06,18.20
2013,05,07,03,07,18.10
2013,05,07,03,08,18.00
2013,05,07,03,09,17.90
2013,05,07,03,10,17.90
2013,05,07,03,11,17.80
2013,05,07,03,12,17.70
2013,05,07,03,13,17.60
2013,05,07,03,14,17.60
2013,05,07,03,15,17.60
2013,05,07,03,16,17.50
2013,05,07,03,17,17.50
2013,05,07,03,18,17.40
2013,05,07,03,19,17.40
2013,05,07,03,20,17.30
2013,05,07,03,21,17.30
2013,05,07,03,22,17.20
2013,05,07,03,23,17.20
2013,05,07,03,24,17.20
2013,05,07,03,25,17.20
2013,05,07,03,26,17.10
2013,05,07,03,27,17.10
2013,05,07,03,28,17.10
2013,05,07,03,29,17.00
2013,05,07,03,30,17.00
2013,05,07,03,31,16.90
2013,05,07,03,32,16.90
2013,05,07,03,33,16.90
2013,05,07,03,34,16.80
2013,05,07,03,35,16.80
2013,05,07,03,36,16.70
2013,05,07,03,37,16.70
2013,05,07,03,38,16.70
2013,05,07,03,39,16.70
2013,05,07,03,40,16.80
2013,05,07,03,41,16.90
2013,05,07,03,42,17.00
2013,05,07,03,43,17.10
2013,05,07,03,44,17.20
2013,05,07,03,45,17.30
2013,05,07,03,46,17.30
2013,05,07,03,47,17.30
2013,05,07,03,48,17.40
2013,05,07,03,49,17.50
2013,05,07,03,50,17.60
2013,05,07,03,51,17.70
2013,05,07,03,52,17.70
2013,05,07,03,53,17.70
2013,05,07,03,54,17.80
2013,05,07,03,55,17.90
2013,05,07,03,56,17.90
2013,05,07,03,57,17.90
2013,05,07,03,58,18.00
2013,05,07,03,59,18.00
2013,05,07,04,00,18.10
2013,05,07,04,01,18.10
2013,05,07,04,02,18.10
2013,05,07,04,03,18.10
2013,05,07,04,04,18.10
2013,05,07,04,05,18.10
2013,05,07,04,06,18.10
2013,05,07,04,07,18.10
2013,05,07,04,08,18.10
2013,05,07,04,09,18.10
2013,05,07,04,10,18.10
2013,05,07,04,11,18.00
2013,05,07,04,12,18.00
2013,05,07,04,13,18.00
2013,05,07,04,14,18.00
2013,05,07,04,15,18.00
2013,05,07,04,16,18.00
2013,05,07,04,17,18.00
2013,05,07,04,18,18.00
2013,05,07,04,19,18.00
2013,05,07,04,20,18.00
2013,05,07,04,21,18.00
2013,05,07,04,22,18.00
2013,05,07,04,23,18.00
2013,05,07,04,24,18.10
2013,05,07,04,25,18.10
2013,05,07,04,26,18.10
2013,05,07,04,27,18.10
2013,05,07,04,28,18.10
2013,05,07,04,29,18.10
2013,05,07,04,30,18.10
2013,05,07,04,31,18.10
2013,05,07,04,32,18.10
2013,05,07,04,33,18.10
2013,05,07,04,34,18.10
2013,05,07,04,35,18.10
2013,05,07,04,36,18.10
2013,05,07,04,37,18.10
2013,05,07,04,38,18.20
2013,05,07,04,39,18.20
2013,05,07,04,40,18.20
2013,05,07,04,41,18.20
2013,05,07,04,42,18.20
2013,05,07,04,43,18.20
2013,05,07,04,44,18.20
2013,05,07,04,45,18.10
2013,05,07,04,46,18.10
2013,05,07,04,47,18.10
2013,05,07,04,48,18.10
2013,05,07,04,49,18.10
2013,05,07,04,50,18.00
2013,05,07,04,51,18.00
2013,05,07,04,52,18.00
2013,05,07,04,53,17.90
2013,05,07,04,54,17.90
2013,05,07,04,55,17.90
2013,05,07,04,56,17.90
2013,05,07,04,57,17.90
2013,05,07,04,58,17.90
2013,05,07,04,59,17.90
2013,05,07,05,00,17.90
2013,05,07,05,01,17.90
2013,05,07,05,02,17.90
2013,05,07,05,03,17.90
2013,05,07,05,04,17.90
2013,05,07,05,05,17.90
2013,05,07,05,06,17.80
2013,05,07,05,07,17.80
2013,05,07,05,08,17.80
2013,05,07,05,09,17.80
2013,05,07,05,10,17.70
2013,05,07,05,11,17.60
2013,05,07,05,12,17.50
2013,05,07,05,13,17.50
2013,05,07,05,14,17.40
2013,05,07,05,15,17.30
2013,05,07,05,16,17.30
2013,05,07,05,17,17.20
2013,05,07,05,18,17.20
2013,05,07,05,19,17.10
2013,05,07,05,20,17.10
2013,05,07,05,21,17.00
2013,05,07,05,22,16.90
2013,05,07,05,23,16.80
2013,05,07,05,24,16.70
2013,05,07,05,25,16.70
2013,05,07,05,26,16.60
2013,05,07,05,27,16.50
2013,05,07,05,28,16.50
2013,05,07,05,29,16.40
2013,05,07,05,30,16.40
2013,05,07,05,31,16.30
2013,05,07,05,32,16.20
2013,05,07,05,33,16.20
2013,05,07,05,34,16.10
2013,05,07,05,35,16.10
2013,05,07,05,36,16.00
2013,05,07,05,37,15.90
2013,05,07,05,38,15.80
2013,05,07,05,39,15.80
2013,05,07,05,40,15.70
2013,05,07,05,41,15.70
2013,05,07,05,42,15.60
2013,05,07,05,43,15.60
2013,05,07,05,44,15.50
2013,05,07,05,45,15.40
2013,05,07,05,46,15.40
2013,05,07,05,47,15.30
2013,05,07,05,48,15.30
2013,05,07,05,49,15.20
2013,05,07,05,50,15.20
2013,05,07,05,51,15.10
2013,05,07,05,52,15.10
2013,05,07,05,53,15.00
2013,05,07,05,54,14.90
2013,05,07,05,55,14.90
2013,05,07,05,56,14.80
2013,05,07,05,57,14.70
2013,05,07,05,58,14.70
2013,05,07,05,59,14.60
2013,05,07,06,00,14.60
2013,05,07,06,01,14.60
2013,05,07,06,02,14.60
2013,05,07,06,03,14.50
2013,05,07,06,04,14.50
2013,05,07,06,05,14.50
2013,05,07,06,06,14.40
2013,05,07,06,07,14.40
2013,05,07,06,08,14.40
2013,05,07,06,09,14.40
2013,05,07,06,10,14.30
2013,05,07,06,11,14.30
2013,05,07,06,12,14.30
2013,05,07,06,13,14.30
2013,05,07,06,14,14.30
2013,05,07,06,15,14.30
2013,05,07,06,16,14.30
2013,05,07,06,17,14.30
2013,05,07,06,18,14.30
2013,05,07,06,19,14.30
2013,05,07,06,20,14.30
2013,05,07,06,21,14.20
2013,05,07,06,22,14.30
2013,05,07,06,23,14.30
2013,05,07,06,24,14.30
2013,05,07,06,25,14.30
2013,05,07,06,26,14.30
2013,05,07,06,27,14.30
2013,05,07,06,28,14.40
2013,05,07,06,29,14.40
2013,05,07,06,30,14.40
2013,05,07,06,31,14.40
2013,05,07,06,32,14.40
2013,05,07,06,33,14.40
2013,05,07,06,34,14.40
2013,05,07,06,35,14.40
2013,05,07,06,36,14.40
2013,05,07,06,37,14.40
2013,05,07,06,38,14.40
2013,05,07,06,39,14.40
2013,05,07,06,40,14.40
2013,05,07,06,41,14.40
2013,05,07,06,42,14.40
2013,05,07,06,43,14.40
2013,05,07,06,44,14.40
2013,05,07,06,45,14.40
2013,05,07,06,46,14.40
2013,05,07,06,47,14.40
2013,05,07,06,48,14.40
2013,05,07,06,49,14.40
2013,05,07,06,50,14.40
2013,05,07,06,51,14.40
2013,05,07,06,52,14.40
2013,05,07,06,53,14.50
2013,05,07,06,54,14.50
2013,05,07,06,55,14.50
2013,05,07,06,56,14.50
2013,05,07,06,57,14.60
2013,05,07,06,58,14.60
2013,05,07,06,59,14.70
2013,05,07,07,00,14.70
2013,05,07,07,01,14.70
2013,05,07,07,02,14.70
2013,05,07,07,03,14.80
2013,05,07,07,04,14.80
2013,05,07,07,05,14.80
2013,05,07,07,06,14.90
2013,05,07,07,07,14.90
2013,05,07,07,08,15.00
2013,05,07,07,09,15.10
2013,05,07,07,10,15.20
2013,05,07,07,11,15.20
2013,05,07,07,12,15.30
2013,05,07,07,13,15.40
2013,05,07,07,14,15.50
2013,05,07,07,15,15.60
2013,05,07,07,16,15.70
2013,05,07,07,17,15.80
2013,05,07,07,18,15.90
2013,05,07,07,19,16.00
2013,05,07,07,20,16.10
2013,05,07,07,21,16.10
2013,05,07,07,22,16.20
2013,05,07,07,23,16.30
2013,05,07,07,24,16.40
2013,05,07,07,25,16.40
2013,05,07,07,26,16.50
2013,05,07,07,27,16.60
2013,05,07,07,28,16.70
2013,05,07,07,29,16.70
2013,05,07,07,30,16.80
2013,05,07,07,31,16.90
2013,05,07,07,32,17.00
2013,05,07,07,33,17.00
2013,05,07,07,34,17.20
2013,05,07,07,35,17.20
2013,05,07,07,36,17.30
2013,05,07,07,37,17.40
2013,05,07,07,38,17.50
2013,05,07,07,39,17.60
2013,05,07,07,40,17.70
2013,05,07,07,41,17.80
2013,05,07,07,42,17.90
2013,05,07,07,43,17.90
2013,05,07,07,44,18.00
2013,05,07,07,45,18.00
2013,05,07,07,46,18.00
2013,05,07,07,47,18.00
2013,05,07,07,48,18.00
2013,05,07,07,49,18.00
2013,05,07,07,50,18.00
2013,05,07,07,51,18.00
2013,05,07,07,52,18.00
2013,05,07,07,53,18.10
2013,05,07,07,54,18.10
2013,05,07,07,55,18.10
2013,05,07,07,56,18.10
2013,05,07,07,57,18.10
2013,05,07,07,58,18.10
2013,05,07,07,59,18.10
2013,05,07,08,00,18.10
2013,05,07,08,01,18.00
2013,05,07,08,02,18.00
2013,05,07,08,03,17.90
2013,05,07,08,04,17.90
2013,05,07,08,05,17.90
2013,05,07,08,06,17.80
2013,05,07,08,07,17.80
2013,05,07,08,08,17.80
2013,05,07,08,09,17.80
2013,05,07,08,10,17.80
2013,05,07,08,11,17.80
2013,05,07,08,12,17.80
2013,05,07,08,13,17.90
2013,05,07,08,14,17.90
2013,05,07,08,15,17.90
2013,05,07,08,16,17.90
2013,05,07,08,17,17.90
2013,05,07,08,18,17.90
2013,05,07,08,19,18.00
2013,05,07,08,20,18.00
2013,05,07,08,21,18.00
2013,05,07,08,22,18.10
2013,05,07,08,23,18.10
2013,05,07,08,24,18.10
2013,05,07,08,25,18.10
2013,05,07,08,26,18.10
2013,05,07,08,27,18.10
2013,05,07,08,28,18.10
2013,05,07,08,29,18.10
2013,05,07,08,30,18.00
2013,05,07,08,31,18.00
2013,05,07,08,32,18.00
2013,05,07,08,33,18.00
2013,05,07,08,34,18.00
2013,05,07,08,35,18.00
2013,05,07,08,36,18.00
2013,05,07,08,37,18.10
2013,05,07,08,38,18.10
2013,05,07,08,39,18.10
2013,05,07,08,40,18.10
2013,05,07,08,41,18.10
2013,05,07,08,42,18.20
2013,05,07,08,43,18.20
2013,05,07,08,44,18.20
2013,05,07,08,45,18.20
2013,05,07,08,46,18.30
2013,05,07,08,47,18.30
2013,05,07,08,48,18.30
2013,05,07,08,49,18.30
2013,05,07,08,50,18.30
2013,05,07,08,51,18.30
2013,05,07,08,52,18.30
2013,05,07,08,53,18.30
2013,05,07,08,54,18.30
2013,05,07,08,55,18.20
2013,05,07,08,56,18.20
2013,05,07,08,57,18.20
2013,05,07,08,58,18.10
2013,05,07,08,59,18.20
2013,05,07,09,00,18.20
2013,05,07,09,01,18.20
2013,05,07,09,02,18.20
2013,05,07,09,03,18.30
2013,05,07,09,04,18.30
2013,05,07,09,05,18.40
2013,05,07,09,06,18.40
2013,05,07,09,07,18.40
2013,05,07,09,08,18.40
2013,05,07,09,09,18.30
2013,05,07,09,10,18.30
2013,05,07,09,11,18.30
2013,05,07,09,12,18.30
2013,05,07,09,13,18.30
2013,05,07,09,14,18.40
2013,05,07,09,15,18.40
2013,05,07,09,16,18.40
2013,05,07,09,17,18.40
2013,05,07,09,18,18.40
2013,05,07,09,19,18.40
2013,05,07,09,20,18.30
2013,05,07,09,21,18.30
2013,05,07,09,22,18.30
2013,05,07,09,23,18.20
2013,05,07,09,24,18.20
2013,05,07,09,25,18.20
2013,05,07,09,26,18.20
2013,05,07,09,27,18.20
2013,05,07,09,28,18.10
2013,05,07,09,29,18.10
2013,05,07,09,30,18.10
2013,05,07,09,31,18.10
2013,05,07,09,32,18.20
2013,05,07,09,33,18.20
2013,05,07,09,34,18.20
2013,05,07,09,35,18.20
2013,05,07,09,36,18.30
2013,05,07,09,37,18.30
2013,05,07,09,38,18.40
2013,05,07,09,39,18.40
2013,05,07,09,40,18.40
2013,05,07,09,41,18.50
2013,05,07,09,42,18.50
2013,05,07,09,43,18.50
2013,05,07,09,44,18.50
2013,05,07,09,45,18.60
2013,05,07,09,46,18.60
2013,05,07,09,47,18.70
2013,05,07,09,48,18.70
2013,05,07,09,49,18.80
2013,05,07,09,50,18.80
2013,05,07,09,51,18.90
2013,05,07,09,52,19.00
2013,05,07,09,53,19.10
2013,05,07,09,54,19.10
2013,05,07,09,55,19.20
2013,05,07,09,56,19.30
2013,05,07,09,57,19.30
2013,05,07,09,58,19.30
2013,05,07,09,59,19.30
2013,05,07,10,00,19.30
2013,05,07,10,01,19.30
2013,05,07,10,02,19.30
2013,05,07,10,03,19.30
2013,05,07,10,04,19.30
2013,05,07,10,05,19.40
2013,05,07,10,06,19.40
2013,05,07,10,07,19.50
2013,05,07,10,08,19.50
2013,05,07,10,09,19.60
2013,05,07,10,10,19.60
2013,05,07,10,11,19.60
2013,05,07,10,12,19.70
2013,05,07,10,13,19.70
2013,05,07,10,14,19.70
2013,05,07,10,15,19.80
2013,05,07,10,16,19.80
2013,05,07,10,17,19.80
2013,05,07,10,18,19.80
2013,05,07,10,19,19.80
2013,05,07,10,20,19.80
2013,05,07,10,21,19.80
2013,05,07,10,22,19.80
2013,05,07,10,23,19.70
2013,05,07,10,24,19.70
2013,05,07,10,25,19.60
2013,05,07,10,26,19.60
2013,05,07,10,27,19.60
2013,05,07,10,28,19.60
2013,05,07,10,29,19.60
2013,05,07,10,30,19.60
2013,05,07,10,31,19.60
2013,05,07,10,32,19.60
2013,05,07,10,33,19.70
2013,05,07,10,34,19.80
2013,05,07,10,35,19.80
2013,05,07,10,36,19.70
2013,05,07,10,37,19.70
2013,05,07,10,38,19.70
2013,05,07,10,39,19.70
2013,05,07,10,40,19.70
2013,05,07,10,41,19.70
2013,05,07,10,42,19.70
2013,05,07,10,43,19.80
2013,05,07,10,44,19.80
2013,05,07,10,45,19.90
2013,05,07,10,46,20.00
2013,05,07,10,47,20.10
2013,05,07,10,48,20.10
2013,05,07,10,49,20.20
2013,05,07,10,50,20.20
2013,05,07,10,51,20.20
2013,05,07,10,52,20.20
2013,05,07,10,53,20.30
2013,05,07,10,54,20.20
2013,05,07,10,55,20.20
2013,05,07,10,56,20.20
2013,05,07,10,57,20.20
2013,05,07,10,58,20.30
2013,05,07,10,59,20.20
2013,05,07,11,00,20.20
2013,05,07,11,01,20.20
2013,05,07,11,02,20.10
2013,05,07,11,03,20.10
2013,05,07,11,04,20.00
2013,05,07,11,05,19.90
2013,05,07,11,06,19.90
2013,05,07,11,07,19.80
2013,05,07,11,08,19.80
2013,05,07,11,09,19.70
2013,05,07,11,10,19.60
2013,05,07,11,11,19.60
2013,05,07,11,12,19.60
2013,05,07,11,13,19.60
2013,05,07,11,14,19.60
2013,05,07,11,15,19.60
2013,05,07,11,16,19.50
2013,05,07,11,17,19.40
2013,05,07,11,18,19.40
2013,05,07,11,19,19.40
2013,05,07,11,20,19.40
2013,05,07,11,21,19.50
2013,05,07,11,22,19.50
2013,05,07,11,23,19.40
2013,05,07,11,24,19.40
2013,05,07,11,25,19.50
2013,05,07,11,26,19.50
2013,05,07,11,27,19.50
2013,05,07,11,28,19.50
2013,05,07,11,29,19.50
2013,05,07,11,30,19.60
2013,05,07,11,31,19.60
2013,05,07,11,32,19.70
2013,05,07,11,33,19.80
2013,05,07,11,34,19.80
2013,05,07,11,35,19.90
2013,05,07,11,36,19.90
2013,05,07,11,37,20.00
2013,05,07,11,38,20.00
2013,05,07,11,39,20.00
2013,05,07,11,40,20.10
2013,05,07,11,41,20.20
2013,05,07,11,42,20.20
2013,05,07,11,43,20.20
2013,05,07,11,44,20.30
2013,05,07,11,45,20.30
2013,05,07,11,46,20.30
2013,05,07,11,47,20.30
2013,05,07,11,48,20.40
2013,05,07,11,49,20.40
2013,05,07,11,50,20.50
2013,05,07,11,51,20.60
2013,05,07,11,52,20.60
2013,05,07,11,53,20.70
2013,05,07,11,54,20.70
2013,05,07,11,55,20.70
2013,05,07,11,56,20.60
2013,05,07,11,57,20.60
2013,05,07,11,58,20.70
2013,05,07,11,59,20.70
2013,05,07,12,00,20.70
2013,05,07,12,01,20.70
2013,05,07,12,02,20.70
2013,05,07,12,03,20.80
2013,05,07,12,04,20.80
2013,05,07,12,05,20.80
2013,05,07,12,06,20.90
2013,05,07,12,07,21.00
2013,05,07,12,08,21.00
2013,05,07,12,09,21.10
2013,05,07,12,10,21.20
2013,05,07,12,11,21.20
2013,05,07,12,12,21.20
2013,05,07,12,13,21.20
2013,05,07,12,14,21.20
2013,05,07,12,15,21.20
2013,05,07,12,16,21.20
2013,05,07,12,17,21.20
2013,05,07,12,18,21.20
2013,05,07,12,19,21.20
2013,05,07,12,20,21.20
2013,05,07,12,21,21.20
2013,05,07,12,22,21.20
2013,05,07,12,23,21.20
2013,05,07,12,24,21.20
2013,05,07,12,25,21.20
2013,05,07,12,26,21.30
2013,05,07,12,27,21.30
2013,05,07,12,28,21.30
2013,05,07,12,29,21.30
2013,05,07,12,30,21.30
2013,05,07,12,31,21.20
2013,05,07,12,32,21.10
2013,05,07,12,33,21.10
2013,05,07,12,34,21.10
2013,05,07,12,35,21.10
2013,05,07,12,36,21.10
2013,05,07,12,37,21.10
2013,05,07,12,38,21.10
2013,05,07,12,39,21.00
2013,05,07,12,40,21.00
2013,05,07,12,41,20.90
2013,05,07,12,42,20.80
2013,05,07,12,43,20.80
2013,05,07,12,44,20.80
2013,05,07,12,45,20.70
2013,05,07,12,46,20.80
2013,05,07,12,47,20.80
2013,05,07,12,48,20.90
2013,05,07,12,49,20.90
2013,05,07,12,50,20.90
2013,05,07,12,51,20.80
2013,05,07,12,52,20.80
2013,05,07,12,53,20.80
2013,05,07,12,54,20.80
2013,05,07,12,55,20.80
2013,05,07,12,56,20.80
2013,05,07,12,57,20.80
2013,05,07,12,58,20.80
2013,05,07,12,59,20.80
2013,05,07,13,00,20.70
2013,05,07,13,01,20.70
2013,05,07,13,02,20.80
2013,05,07,13,03,20.80
2013,05,07,13,04,20.80
2013,05,07,13,05,20.80
2013,05,07,13,06,20.80
2013,05,07,13,07,20.80
2013,05,07,13,08,20.70
2013,05,07,13,09,20.60
2013,05,07,13,10,20.60
2013,05,07,13,11,20.60
2013,05,07,13,12,20.60
2013,05,07,13,13,20.60
2013,05,07,13,14,20.60
2013,05,07,13,15,20.60
2013,05,07,13,16,20.50
2013,05,07,13,17,20.40
2013,05,07,13,18,20.30
2013,05,07,13,19,20.20
2013,05,07,13,20,20.10
2013,05,07,13,21,20.10
2013,05,07,13,22,20.00
2013,05,07,13,23,20.00
2013,05,07,13,24,19.90
2013,05,07,13,25,19.90
2013,05,07,13,26,19.80
2013,05,07,13,27,19.80
2013,05,07,13,28,19.80
2013,05,07,13,29,19.90
2013,05,07,13,30,19.90
2013,05,07,13,31,19.90
2013,05,07,13,32,19.90
2013,05,07,13,33,19.90
2013,05,07,13,34,20.00
2013,05,07,13,35,20.00
2013,05,07,13,36,20.00
2013,05,07,13,37,20.10
2013,05,07,13,38,20.10
2013,05,07,13,39,20.10
2013,05,07,13,40,20.10
2013,05,07,13,41,20.10
2013,05,07,13,42,20.10
2013,05,07,13,43,20.10
2013,05,07,13,44,20.10
2013,05,07,13,45,20.10
2013,05,07,13,46,20.20
2013,05,07,13,47,20.20
2013,05,07,13,48,20.30
2013,05,07,13,49,20.30
2013,05,07,13,50,20.40
2013,05,07,13,51,20.40
2013,05,07,13,52,20.40
2013,05,07,13,53,20.40
2013,05,07,13,54,20.30
2013,05,07,13,55,20.30
2013,05,07,13,56,20.40
2013,05,07,13,57,20.40
2013,05,07,13,58,20.40
2013,05,07,13,59,20.50
2013,05,07,14,00,20.50
2013,05,07,14,01,20.50
2013,05,07,14,02,20.50
2013,05,07,14,03,20.60
2013,05,07,14,04,20.60
2013,05,07,14,05,20.50
2013,05,07,14,06,20.50
2013,05,07,14,07,20.50
2013,05,07,14,08,20.50
2013,05,07,14,09,20.50
2013,05,07,14,10,20.60
2013,05,07,14,11,20.60
2013,05,07,14,12,20.60
2013,05,07,14,13,20.70
2013,05,07,14,14,20.80
2013,05,07,14,15,20.80
2013,05,07,14,16,20.90
2013,05,07,14,17,20.90
2013,05,07,14,18,21.00
2013,05,07,14,19,21.00
2013,05,07,14,20,21.00
2013,05,07,14,21,21.00
2013,05,07,14,22,21.00
2013,05,07,14,23,20.90
2013,05,07,14,24,20.90
2013,05,07,14,25,20.90
2013,05,07,14,26,20.80
2013,05,07,14,27,20.90
2013,05,07,14,28,20.90
2013,05,07,14,29,21.00
2013,05,07,14,30,21.00
2013,05,07,14,31,21.00
2013,05,07,14,32,21.00
2013,05,07,14,33,21.10
2013,05,07,14,34,21.10
2013,05,07,14,35,21.20
2013,05,07,14,36,21.30
2013,05,07,14,37,21.30
2013,05,07,14,38,21.40
2013,05,07,14,39,21.40
2013,05,07,14,40,21.50
2013,05,07,14,41,21.50
2013,05,07,14,42,21.60
2013,05,07,14,43,21.70
2013,05,07,14,44,21.70
2013,05,07,14,45,21.70
2013,05,07,14,46,21.80
2013,05,07,14,47,21.80
2013,05,07,14,48,21.80
2013,05,07,14,49,21.80
2013,05,07,14,50,21.70
2013,05,07,14,51,21.70
2013,05,07,14,52,21.70
2013,05,07,14,53,21.60
2013,05,07,14,54,21.60
2013,05,07,14,55,21.60
2013,05,07,14,56,21.60
2013,05,07,14,57,21.60
2013,05,07,14,58,21.70
2013,05,07,14,59,21.70
2013,05,07,15,00,21.80
2013,05,07,15,01,21.80
2013,05,07,15,02,21.80
2013,05,07,15,03,21.90
2013,05,07,15,04,21.90
2013,05,07,15,05,21.90
2013,05,07,15,06,21.90
2013,05,07,15,07,21.90
2013,05,07,15,08,21.90
2013,05,07,15,09,22.00
2013,05,07,15,10,22.00
2013,05,07,15,11,22.10
2013,05,07,15,12,22.20
2013,05,07,15,13,22.20
2013,05,07,15,14,22.20
2013,05,07,15,15,22.20
2013,05,07,15,16,22.20
2013,05,07,15,17,22.20
2013,05,07,15,18,22.20
2013,05,07,15,19,22.20
2013,05,07,15,20,22.10
2013,05,07,15,21,22.10
2013,05,07,15,22,22.10
2013,05,07,15,23,22.10
2013,05,07,15,24,22.20
2013,05,07,15,25,22.20
2013,05,07,15,26,22.20
2013,05,07,15,27,22.20
2013,05,07,15,28,22.20
2013,05,07,15,29,22.20
2013,05,07,15,30,22.20
2013,05,07,15,31,22.20
2013,05,07,15,32,22.20
2013,05,07,15,33,22.10
2013,05,07,15,34,22.00
2013,05,07,15,35,21.90
2013,05,07,15,36,21.90
2013,05,07,15,37,21.80
2013,05,07,15,38,21.80
2013,05,07,15,39,21.80
2013,05,07,15,40,21.90
2013,05,07,15,41,21.90
2013,05,07,15,42,22.00
2013,05,07,15,43,22.00
2013,05,07,15,44,22.00
2013,05,07,15,45,22.00
2013,05,07,15,46,22.00
2013,05,07,15,47,21.90
2013,05,07,15,48,21.90
2013,05,07,15,49,21.90
2013,05,07,15,50,21.80
2013,05,07,15,51,21.80
2013,05,07,15,52,21.80
2013,05,07,15,53,21.80
2013,05,07,15,54,21.80
2013,05,07,15,55,21.70
2013,05,07,15,56,21.70
2013,05,07,15,57,21.70
2013,05,07,15,58,21.70
2013,05,07,15,59,21.70
2013,05,07,16,00,21.60
2013,05,07,16,01,21.60
2013,05,07,16,02,21.60
2013,05,07,16,03,21.50
2013,05,07,16,04,21.50
2013,05,07,16,05,21.50
2013,05,07,16,06,21.50
2013,05,07,16,07,21.50
2013,05,07,16,08,21.50
2013,05,07,16,09,21.50
2013,05,07,16,10,21.60
2013,05,07,16,11,21.60
2013,05,07,16,12,21.60
2013,05,07,16,13,21.70
2013,05,07,16,14,21.70
2013,05,07,16,15,21.80
2013,05,07,16,16,21.90
2013,05,07,16,17,21.90
2013,05,07,16,18,21.90
2013,05,07,16,19,21.90
2013,05,07,16,20,22.00
2013,05,07,16,21,22.00
2013,05,07,16,22,22.00
2013,05,07,16,23,22.00
2013,05,07,16,24,21.90
2013,05,07,16,25,21.90
2013,05,07,16,26,22.00
2013,05,07,16,27,22.00
2013,05,07,16,28,22.00
2013,05,07,16,29,22.10
2013,05,07,16,30,22.10
2013,05,07,16,31,22.10
2013,05,07,16,32,22.10
2013,05,07,16,33,22.20
2013,05,07,16,34,22.20
2013,05,07,16,35,22.30
2013,05,07,16,36,22.30
2013,05,07,16,37,22.30
2013,05,07,16,38,22.30
2013,05,07,16,39,22.20
2013,05,07,16,40,22.20
2013,05,07,16,41,22.20
2013,05,07,16,42,22.20
2013,05,07,16,43,22.20
2013,05,07,16,44,22.10
2013,05,07,16,45,22.00
2013,05,07,16,46,22.00
2013,05,07,16,47,21.90
2013,05,07,16,48,21.90
2013,05,07,16,49,21.80
2013,05,07,16,50,21.80
2013,05,07,16,51,21.80
2013,05,07,16,52,21.80
2013,05,07,16,53,21.80
2013,05,07,16,54,21.80
2013,05,07,16,55,21.80
2013,05,07,16,56,21.80
2013,05,07,16,57,21.80
2013,05,07,16,58,21.90
2013,05,07,16,59,21.90
2013,05,07,17,00,21.90
2013,05,07,17,01,21.90
2013,05,07,17,02,21.90
2013,05,07,17,03,22.00
2013,05,07,17,04,22.00
2013,05,07,17,05,22.00
2013,05,07,17,06,21.90
2013,05,07,17,07,21.90
2013,05,07,17,08,21.90
2013,05,07,17,09,22.00
2013,05,07,17,10,22.00
2013,05,07,17,11,22.10
2013,05,07,17,12,22.10
2013,05,07,17,13,22.00
2013,05,07,17,14,22.00
2013,05,07,17,15,21.90
2013,05,07,17,16,21.90
2013,05,07,17,17,21.80
2013,05,07,17,18,21.90
2013,05,07,17,19,21.90